Regional Weather Roundup
Issued by NWS Wilmington, NC

Home | Current Version | Previous Version | Text Only | Print | Product List | Glossary On
Versions: 1 2 3 4 5 6 7 8 9 10 11 12 13 14 15 16 17 18 19 20 21 22 23 24 25 26 27 28 29 30 31 32 33 34 35 36 37 38 39 40 41 42 43 44 45 46 47 48 49 50
000
ASUS42 KILM 261110
RWRILM
RWRILM
REGIONAL HOURLY WEATHER ROUNDUP
NATIONAL WEATHER SERVICE WILMINGTON NC
700 AM EDT SAT JUL 26 2014

NOTE: "FAIR" INDICATES FEW OR NO CLOUDS BELOW 12,000 FEET WITH NO
SIGNIFICANT WEATHER AND/OR OBSTRUCTIONS TO VISIBILITY.

...............WFO WILMINGTON COUNTY WARNING AREA...............

......COASTAL NC AND SC COUNTIES......

CITY           SKY/WX    TMP DP  RH WIND       PRES   REMARKS
WILMINGTON     MOCLDY    75  73  93 CALM      30.00R
SOUTHPORT      MOCLDY    75  73  95 CALM      30.01R
N MYRTLE BEACH PTCLDY    74  71  91 CALM      30.01R
MYRTLE BEACH   PTCLDY    73  70  88 CALM      30.01S

......INLAND NC AND SC COUNTIES.......

CITY           SKY/WX    TMP DP  RH WIND       PRES   REMARKS
LUMBERTON      MOCLDY    74  73  97 S6        30.00S FOG
ELIZABETHTOWN  FOG       73  73 100 CALM      30.01S VSB 1/2
WHITEVILLE     MOCLDY    74  73  97 CALM      30.01R FOG
FLORENCE       FOG       72  71  97 SW3       30.02R VSB 1/2
DARLINGTON     CLOUDY    72  68  88 S3        30.03S

....................REST OF NORTH CAROLINA......................

.........EASTERN NC.........

CITY           SKY/WX    TMP DP  RH WIND       PRES   REMARKS
CAPE HATTERAS  MOCLDY    77  73  87 NE5       30.01S
JACKSONVILLE   MOCLDY    72  70  94 CALM      30.02S
MOREHEAD CITY  PTCLDY    76  73  91 CALM      30.01R
KENANSVILLE    MOCLDY    72  70  95 CALM      30.03S FOG
NEW BERN       MOCLDY    76  72  87 CALM      30.03S
ELIZABETH CITY CLOUDY    73  66  78 CALM      30.03S

.........CENTRAL NC.........

CITY           SKY/WX    TMP DP  RH WIND       PRES   REMARKS
RALEIGH DURHAM FOG       72  70  93 CALM      30.03R VSB 1/4
ROCKY MOUNT    CLOUDY    71  70  96 CALM      30.02S FOG
ROANOKE RAPIDS NOT AVBL
FAYETTEVILLE   FOG       73  72  96 CALM      30.00F VSB<1/4
HOFFMAN        CLOUDY    72  72 100 SE2       30.03S FOG

.........WESTERN NC.........

CITY           SKY/WX    TMP DP  RH WIND       PRES   REMARKS
CHARLOTTE      MOCLDY    68  67  96 CALM      30.03R FOG
GREENSBORO     CLOUDY    72  70  94 W3        30.04R FOG
HICKORY        NOT AVBL
BOONE          NOT AVBL
ASHEVILLE      NOT AVBL

.....................REST OF SOUTH CAROLINA.....................

.........EASTERN SC.........

CITY           SKY/WX    TMP DP  RH WIND       PRES   REMARKS
CHARLESTON     MOCLDY    76  72  87 CALM      30.01S
BEAUFORT MCAS  MOCLDY    76  74  93 W8        30.02R
HILTON HEAD    NOT AVBL

.........CENTRAL SC.........

CITY           SKY/WX    TMP DP  RH WIND       PRES   REMARKS
COLUMBIA       MOCLDY    73  69  87 CALM      30.02R
ORANGEBURG     CLOUDY    73  71  93 W3        30.03R FOG
SUMTER SHAW    CLOUDY    73  73 100 S2        30.01S

.........WESTERN SC.........

CITY           SKY/WX    TMP DP  RH WIND       PRES   REMARKS
GREENVILLE     NOT AVBL
ROCK HILL      FOG       69  68  96 CALM      30.03R VSB<1/4
ANDERSON       CLEAR     69  68  96 CALM      30.03R FOG
CLEMSON        NOT AVBL
GREENWOOD      CLEAR     69  67  93 CALM      30.03R FOG


...................COASTAL AND OFFSHORE REPORTS..................

................LOCAL PIERS AND NC RESERVE................


STATION/POSITION TIME  SKY/WX   TEMP    WIND        PRES    VSBY
                                AIR SEA DIR/SP/G
                 (UTC)          (F)     (DEG/KT/KT) (MB)    (MI)
JOHNY MRCER PIER 1100            77 83  290/  3/  4 1015.4R
NC RESRV MASNBRO 1000            76        CALM     1015.0S
OCEAN CREST PIER 1100            77 83  310/  3/  4 1014.9R
SPRINGMAID  PIER 1100            74 83  290/  5/  6 1016.2R


................COASTAL AND OFFSHORE BUOYS................


STATION/POSITION TIME  SKY/WX   TEMP    WIND        PRES    VSBY
                                AIR SEA DIR/SP/G
                 (UTC)          (F)     (DEG/KT/KT) (MB)    (MI)
DIMNDSHOAL 41025 1100                    CALM  /  2 1016.0R
WVE H/P(F/S)=  2/ 6 WND WVE H/P(F/S)=  2/ 3 SWL H/P/D(F/S/D)=  2/100/ 6

CAPE LOOKOUT     1000            79     120/  6/  6 1015.7R
ONSLOW BAY 41036 1100            80 81  250/  4/  4 1016.0F
WVE H/P(F/S)=  3/ 7 WND WVE H/P(F/S)=  2/ 4 SWL H/P/D(F/S/D)=  2/160/ 7

5 WRITEBCH 41038 1000            76 81  340/  2/  4   N/A
MASONBORO  41110 1100               81                N/A
WVE H/P(F/S)=  2/ 5 WND WVE H/P(F/S)=  2/ 5

WILM HARBR 41108 NOT AVBL
27WRITEBCH 41037 1000            77 81  290/  6/  8 1015.2F
FRYING PAN 41013 NOT AVBL
SUNST NRSH 41024 1000            80     270/  8/ 10 1015.5R
CAPRS NRSH 41029 1000            81     230/ 10/ 12   N/A
EDISTO     41004 1100            82 82  240/ 10/ 12 1015.6R
WVE H/P(F/S)=  3/ 5 WND WVE H/P(F/S)=  2/ 4 SWL H/P/D(F/S/D)=  3/ 5



..........OFFSHORE BUOYS BEYOND 100 NM OFFSHORE...........
.....IN A TRIANGLE---HAT TO BERMUDA TO BAHAMAS TO HAT.....


STATION/POSITION TIME  SKY/WX   TEMP    WIND        PRES    VSBY
                                AIR SEA DIR/SP/G
                 (UTC)          (F)     (DEG/KT/KT) (MB)    (MI)
150E HAT   41001 NOT AVBL
W BERMUDA  41048 1022            82 82  250/ 12/ 16 1018.7R
WVE H/P(F/S)=  4/ 7 WND WVE H/P(F/S)=  3/ 5 SWL H/P/D(F/S/D)=  3/270/ 7

ATLANTIC S 41049 1032            82 83  130/  8/ 10 1021.8R
WVE H/P(F/S)=  4/ 8 WND WVE H/P(F/S)=  2/ 4 SWL H/P/D(F/S/D)=  3/120/ 8

E BAHAMAS  41046 1020            83 84  100/ 12/ 14 1019.6R
WVE H/P(F/S)=  5/ 8 WND WVE H/P(F/S)=  3/ 5 SWL H/P/D(F/S/D)=  3/120/ 8

NE BAHAMAS 41047 1045            82 84  190/  6/  8 1020.5R
WVE H/P(F/S)=  3/ 8 SWL H/P/D(F/S/D)=  3/140/ 8

120E CANVRL41010 1100            83 84  220/ 12/ 12 1018.2R
WVE H/P(F/S)=  2/ 8 WND WVE H/P(F/S)=  2/ 3 SWL H/P/D(F/S/D)=  2/130/ 8


END



USA.gov is the U.S. government's official web portal to all federal, state and local government web resources and services.